Breckenridge, MN

9:18 PM CST on February 19, 2017 (GMT -0600)
Stern

Weather History for KBWP - October, 2012

Change the Weather History Date:

Wednesday, October 10, 2012

  Actual Average (KFFM) Record (KFFM)
Temperature  
Mean Temperature 37 °F -  
Max Temperature 50 °F 56 °F 84 °F (1955)
Min Temperature 24 °F 36 °F 20 °F (1970)
Degree Days  
Heating Degree Days 28    
Moisture  
Dew Point 26 °F    
Average Humidity 65    
Maximum Humidity 87    
Minimum Humidity 32    
Precipitation  
Precipitation 0.00 in - - ()
Sea Level Pressure  
Sea Level Pressure 29.97 in    
Wind  
Wind Speed 8 mph (West)    
Max Wind Speed 17 mph    
Max Gust Speed 22 mph    
Visibility 10 miles    
Events      
Averages and records for this station are not official NWS values.
T = Trace of Precipitation, MM = Missing Value Source: NWS Daily Summary

Daily Weather History Graph

Daily Weather History Graph

Search for Another Location

Airport or City:

Trip Planner

Search our weather history database for the weather conditions in past years. The results will help you decide how hot, cold, wet, or windy it might be!

Date:

Astronomy

Oct. 10, 2012 Rise Set
Actual Time 7:37 AM CDT 6:48 PM CDT
Civil Twilight 7:07 AM CDT 7:18 PM CDT
Nautical Twilight 6:32 AM CDT 7:52 PM CDT
Astronomical Twilight 5:57 AM CDT 8:27 PM CDT
Moon 1:58 AM CDT (10/10) 4:06 PM CDT (10/10)
Length of Visible Light 12h 10m
Length of Day
11h 10m
Waning Crescent, 27% of the Moon is Illuminated
Oct 10
Waning Crescent
Oct 15
New
Oct 21
First Quarter
Oct 29
Full
Nov 6
Last Quarter

Hourly Weather History & Observations

Time (CDT) Temp. Windchill Dew Point Humidity Pressure Visibility Wind Dir Wind Speed Gust Speed Precip Events Conditions
12:15 AM 32.0 °F 23.6 °F 26.6 °F 80% 30.03 in 10.0 mi WNW 10.4 mph - N/A   Mostly Cloudy
12:35 AM 32.0 °F 23.6 °F 26.6 °F 80% 30.03 in 10.0 mi WNW 10.4 mph - N/A   Scattered Clouds
12:55 AM 32.0 °F 24.2 °F 26.6 °F 80% 30.03 in 10.0 mi WNW 9.2 mph - N/A   Scattered Clouds
1:15 AM 32.0 °F 23.6 °F 26.6 °F 80% 30.03 in 10.0 mi WNW 10.4 mph - N/A   Clear
1:35 AM 30.2 °F 22.6 °F 26.6 °F 86% 30.03 in 10.0 mi WNW 8.1 mph - N/A   Clear
1:55 AM 28.4 °F 23.3 °F 23.0 °F 80% 30.04 in 10.0 mi WNW 4.6 mph - N/A   Clear
2:15 AM 28.4 °F 23.3 °F 23.0 °F 80% 30.04 in 10.0 mi West 4.6 mph - N/A   Clear
2:35 AM 26.6 °F 22.6 °F 23.0 °F 86% 30.04 in 10.0 mi WNW 3.5 mph - N/A   Clear
2:55 AM 26.6 °F 21.2 °F 23.0 °F 86% 30.04 in 10.0 mi WNW 4.6 mph - N/A   Clear
3:15 AM 24.8 °F - 21.2 °F 86% 30.04 in 10.0 mi Calm Calm - N/A   Clear
3:35 AM 26.6 °F 21.2 °F 21.2 °F 80% 30.04 in 10.0 mi West 4.6 mph - N/A   Clear
3:55 AM 24.8 °F 20.5 °F 21.2 °F 86% 30.04 in 10.0 mi West 3.5 mph - N/A   Clear
4:15 AM 24.8 °F - 21.2 °F 86% 30.04 in 10.0 mi Calm Calm - N/A   Clear
4:35 AM 24.8 °F 20.5 °F 21.2 °F 86% 30.04 in 10.0 mi West 3.5 mph - N/A   Mostly Cloudy
4:55 AM 24.8 °F - 21.2 °F 86% 30.04 in 10.0 mi Calm Calm - N/A   Scattered Clouds
5:15 AM 24.8 °F - 21.2 °F 86% 30.04 in 10.0 mi Calm Calm - N/A   Clear
5:35 AM 24.8 °F 20.5 °F 21.2 °F 86% 30.05 in 10.0 mi WSW 3.5 mph - N/A   Clear
5:55 AM 26.6 °F 22.6 °F 23.0 °F 86% 30.04 in 10.0 mi WSW 3.5 mph - N/A   Mostly Cloudy
6:15 AM 26.6 °F 22.6 °F 23.0 °F 86% 30.05 in 10.0 mi WNW 3.5 mph - N/A   Overcast
6:35 AM 30.2 °F 25.4 °F 26.6 °F 86% 30.04 in 10.0 mi WNW 4.6 mph - N/A   Overcast
6:55 AM 30.2 °F 26.7 °F 26.6 °F 86% 30.04 in 10.0 mi WSW 3.5 mph - N/A   Overcast
7:15 AM 30.2 °F 26.7 °F 26.6 °F 86% 30.04 in 10.0 mi WSW 3.5 mph - N/A   Scattered Clouds
7:55 AM 28.4 °F 24.6 °F 23.0 °F 80% 30.04 in 10.0 mi WSW 3.5 mph - N/A   Clear
8:15 AM 26.6 °F 21.2 °F 23.0 °F 86% 30.04 in 10.0 mi SW 4.6 mph - N/A   Clear
8:35 AM 30.2 °F 24.3 °F 26.6 °F 86% 30.04 in 10.0 mi SW 5.8 mph - N/A   Clear
8:55 AM 32.0 °F 25.6 °F 26.6 °F 80% 30.05 in 10.0 mi WSW 6.9 mph - N/A   Clear
9:15 AM 32.0 °F 24.2 °F 28.4 °F 87% 30.04 in 10.0 mi West 9.2 mph - N/A   Clear
9:35 AM 33.8 °F 27.0 °F 28.4 °F 81% 30.04 in 10.0 mi West 8.1 mph - N/A   Clear
9:55 AM 35.6 °F 28.6 °F 28.4 °F 75% 30.05 in 10.0 mi West 9.2 mph - N/A   Clear
10:15 AM 37.4 °F 31.4 °F 28.4 °F 70% 30.05 in 10.0 mi West 8.1 mph - N/A   Clear
10:35 AM 39.2 °F 33.6 °F 28.4 °F 65% 30.05 in 10.0 mi West 8.1 mph - N/A   Clear
10:55 AM 41.0 °F 35.8 °F 28.4 °F 61% 30.04 in 10.0 mi West 8.1 mph - N/A   Clear
11:15 AM 42.8 °F 39.3 °F 30.2 °F 61% 30.04 in 10.0 mi SW 5.8 mph - N/A   Clear
11:35 AM 44.6 °F 40.7 °F 28.4 °F 53% 30.04 in 10.0 mi SW 6.9 mph - N/A   Clear
11:55 AM 44.6 °F 39.2 °F 28.4 °F 53% 30.03 in 10.0 mi WSW 10.4 mph - N/A   Scattered Clouds
12:15 PM 44.6 °F 40.7 °F 26.6 °F 49% 30.03 in 10.0 mi WSW 6.9 mph - N/A   Scattered Clouds
12:35 PM 46.4 °F 41.5 °F 23.0 °F 40% 30.03 in 10.0 mi West 10.4 mph - N/A   Scattered Clouds
12:55 PM 46.4 °F 40.4 °F 23.0 °F 40% 30.02 in 10.0 mi West 13.8 mph 21.9 mph N/A   Clear
1:15 PM 50.0 °F - 23.0 °F 35% 30.01 in 10.0 mi WSW 10.4 mph - N/A   Clear
1:35 PM 50.0 °F - 23.0 °F 35% 30.00 in 10.0 mi WSW 10.4 mph - N/A   Mostly Cloudy
1:55 PM 50.0 °F - 21.2 °F 32% 29.99 in 10.0 mi West 11.5 mph - N/A   Overcast
2:15 PM 50.0 °F - 21.2 °F 32% 29.99 in 10.0 mi West 12.7 mph 19.6 mph N/A   Mostly Cloudy
2:35 PM 48.2 °F - 19.4 °F 32% 29.98 in 10.0 mi WSW 11.5 mph 19.6 mph N/A   Overcast
2:55 PM 48.2 °F - 21.2 °F 34% 29.96 in 10.0 mi WSW 15.0 mph - N/A   Overcast
3:15 PM 46.4 °F 42.4 °F 21.2 °F 37% 29.96 in 10.0 mi West 8.1 mph - N/A   Overcast
3:35 PM 46.4 °F 42.9 °F 23.0 °F 40% 29.95 in 10.0 mi SW 6.9 mph - N/A   Overcast
3:55 PM 44.6 °F 43.1 °F 26.6 °F 49% 29.94 in 10.0 mi SW 3.5 mph - N/A   Overcast
4:15 PM 46.4 °F 45.2 °F 26.6 °F 46% 29.92 in 10.0 mi SE 3.5 mph - N/A   Scattered Clouds
4:35 PM 46.4 °F 43.5 °F 26.6 °F 46% 29.91 in 10.0 mi SE 5.8 mph - N/A   Scattered Clouds
4:55 PM 46.4 °F 42.4 °F 26.6 °F 46% 29.90 in 10.0 mi ESE 8.1 mph - N/A   Scattered Clouds
5:15 PM 46.4 °F 42.4 °F 24.8 °F 43% 29.88 in 10.0 mi ESE 8.1 mph - N/A   Mostly Cloudy
5:35 PM 46.4 °F 41.5 °F 24.8 °F 43% 29.87 in 10.0 mi ESE 10.4 mph - N/A   Mostly Cloudy
5:55 PM 46.4 °F 41.9 °F 24.8 °F 43% 29.86 in 10.0 mi ESE 9.2 mph - N/A   Scattered Clouds
6:15 PM 46.4 °F 42.4 °F 24.8 °F 43% 29.84 in 10.0 mi ESE 8.1 mph - N/A   Scattered Clouds
6:55 PM 46.4 °F 41.1 °F 24.8 °F 43% 29.83 in 10.0 mi ESE 11.5 mph - N/A   Overcast
7:15 PM 46.4 °F 41.5 °F 24.8 °F 43% 29.82 in 10.0 mi East 10.4 mph - N/A   Overcast
7:35 PM 46.4 °F 41.5 °F 26.6 °F 46% 29.82 in 10.0 mi East 10.4 mph - N/A   Overcast
7:55 PM 46.4 °F 41.5 °F 26.6 °F 46% 29.82 in 10.0 mi East 10.4 mph - N/A   Overcast
8:15 PM 44.6 °F 39.2 °F 26.6 °F 49% 29.83 in 10.0 mi ENE 10.4 mph - N/A   Overcast
8:35 PM 44.6 °F 38.1 °F 26.6 °F 49% 29.82 in 10.0 mi ENE 13.8 mph - N/A   Overcast
8:55 PM 44.6 °F 38.4 °F 28.4 °F 53% 29.82 in 10.0 mi East 12.7 mph - N/A   Overcast
9:15 PM 42.8 °F 36.6 °F 32.0 °F 66% 29.83 in 10.0 mi ENE 11.5 mph - N/A   Overcast
9:35 PM 42.8 °F 36.6 °F 32.0 °F 66% 29.83 in 10.0 mi ENE 11.5 mph - N/A   Overcast
9:55 PM 42.8 °F 37.5 °F 32.0 °F 66% 29.83 in 10.0 mi ENE 9.2 mph - N/A   Overcast
10:15 PM 42.8 °F 36.6 °F 32.0 °F 66% 29.83 in 10.0 mi NNE 11.5 mph - N/A   Overcast
10:55 PM 41.0 °F 34.7 °F 33.8 °F 76% 29.85 in 10.0 mi NNE 10.4 mph - N/A   Overcast
11:15 PM 41.0 °F 33.1 °F 33.8 °F 76% 29.85 in 10.0 mi NNE 15.0 mph - N/A   Overcast
11:35 PM 39.2 °F 31.2 °F 33.8 °F 81% 29.86 in 10.0 mi NNE 13.8 mph - N/A   Overcast
11:55 PM 39.2 °F 30.2 °F 33.8 °F 81% 29.88 in 10.0 mi North 17.3 mph - N/A   Overcast